Regional Weather Roundup
Issued by NWS

Home | Current Version | Previous Version | Text Only | Print | Product List | Glossary Off
Versions: 1 2 3 4 5 6 7 8 9 10 11 12 13 14 15 16 17 18 19 20 21 22 23 24 25 26 27 28 29 30 31 32 33 34 35 36 37 38 39 40 41 42 43 44 45 46 47 48 49 50

574
ASUS45 KABQ 080901
RWRNM
NEW MEXICO REGIONAL WEATHER ROUNDUP
NATIONAL WEATHER SERVICE ALBUQUERQUE NM
200 AM MST MON FEB 08 2016

NOTE: "FAIR" MEANS FEW OR NO CLOUDS BELOW 12,000 FEET AGL WITH NO
       SIGNIFICANT WEATHER OR OBSTRUCTIONS TO VISION.

      THIS PRODUCT IS RELEASED AS TWO VERSIONS.  ONE VERSION NEAR
      THE TOP OF THE HOUR CONTAINING PRELIMINARY DATA FROM ALBUQUERQUE
      AND OTHER STATIONS.  A FINAL VERSION WITH ADDITIONAL DATA IS
      ISSUED ABOUT 10 MINUTES AFTER THE HOUR.

NMZ501-503-504-510>518-081000-
NORTHWEST PLATEAU/NORTHCENTRAL MOUNTAINS

CITY           SKY/WX    TMP DP  RH WIND       PRES   REMARKS
FARMINGTON     CLOUDY    21  17  84 NE6       30.44R WCI  13
SANTA FE       CLOUDY    24  18  77 N6        30.39S WCI  17
TAOS           CLOUDY    16   9  73 CALM      30.41S

$$
NMZ402-403-502-505>509-081000-
WESTCENTRAL MOUNTAINS/SOUTHWEST MOUNTAINS

CITY           SKY/WX    TMP DP  RH WIND       PRES   REMARKS
GALLUP         CLEAR     17  14  88 CALM      30.45S
SILVER CITY      N/A     30  19  64 N9        30.35F WCI  22

$$
NMZ407-409-411-412-081000-
SOUTHERN DESERTS

CITY           SKY/WX    TMP DP  RH WIND       PRES   REMARKS
DEMING         PTCLDY    40  15  36 E7        30.32F
HOLLOMAN AFB   CLOUDY    29  10  45 N2        30.31S
ALAMOGORDO     CLEAR     37  14  38 SE6       30.32S WCI  33
T OR C         CLEAR     39  18  42 N7        30.36S WCI  34

$$
NMZ519>523-081000-
CENTRAL VALLEYS/CENTRAL HIGHLANDS

CITY           SKY/WX    TMP DP  RH WIND       PRES   REMARKS
ALBUQUERQUE    CLOUDY    36  19  50 NE6       30.41S WCI  31
DOUBLE EAGLE   CLOUDY    27  15  61 NW8       30.41S WCI  18
CLINES CORNERS CLOUDY    22  16  78 SE7       30.38F WCI  13
BELEN          FAIR      29  17  61 CALM      30.40S
SOCORRO        NOT AVBL

$$
NMZ524>526-539-540-081000-
SOUTHCENTRAL MOUNTAINS

CITY           SKY/WX    TMP DP  RH WIND       PRES   REMARKS
RUIDOSO          N/A     28  14  54 SE6       30.43R WCI  22

$$
NMZ527>531-081000-
NORTHEAST HIGHLANDS/NORTHEAST PLAINS

CITY           SKY/WX    TMP DP  RH WIND       PRES   REMARKS
LAS VEGAS      CLOUDY    21  17  84 S21       30.38S WCI   5
RATON          CLOUDY    18  14  84 SW3       30.37F
CLAYTON        CLOUDY    24  14  65 NW13      30.41R WCI  12

$$
NMZ532>537-081000-
EASTCENTRAL PLAINS

CITY           SKY/WX    TMP DP  RH WIND       PRES   REMARKS
TUCUMCARI      CLOUDY    19  13  77 NW7       30.45S WCI  10
CANNON AFB     CLEAR     23  14  69 N8        30.43S WCI  13
CLOVIS AIRPORT CLEAR     21  12  68 N9        30.44S WCI  11

$$
NMZ028-029-538-081000-
SOUTHEAST PLAINS

CITY           SKY/WX    TMP DP  RH WIND       PRES   REMARKS
ROSWELL        CLEAR     34  16  47 NE10      30.45R WCI  26
ARTESIA        CLOUDY    32  21  64 NE7       30.44R WCI  26
CARLSBAD       CLOUDY    40  21  46 NE13      30.41R WCI  32
HOBBS          CLOUDY    32  18  55 N8        30.42S WCI  25


$$




USA.gov is the U.S. government's official web portal to all federal, state and local government web resources and services.